Pian Rosa, Italy

8:50 AM CEST on September 23, 2017 (GMT +0200)
Pian Rosa

Weather History for LIMH - January, 2014

Change the Weather History Date:

Saturday, January 11, 2014

  Actual Average Record
Temperature  
Mean Temperature 18 °F -  
Max Temperature 21 °F 17 °F 30 °F (2007)
Min Temperature 15 °F 6 °F 1 °F (2015)
Degree Days  
Heating Degree Days 47    
Moisture  
Dew Point 8 °F    
Average Humidity 58    
Maximum Humidity 100    
Minimum Humidity 23    
Precipitation  
Precipitation 0.00 in - - ()
Sea Level Pressure  
Sea Level Pressure 30.14 in    
Wind  
Wind Speed 8 mph ()    
Max Wind Speed 17 mph    
Max Gust Speed 22 mph    
Visibility 8.8 miles    
Events      
Averages and records for this station are not official NWS values.
T = Trace of Precipitation, MM = Missing Value Source: Averaged Metar Reports

Daily Weather History Graph

Daily Weather History Graph

Search for Another Location

Airport or City:

Trip Planner

Search our weather history database for the weather conditions in past years. The results will help you decide how hot, cold, wet, or windy it might be!

Date:

Astronomy

Jan. 11, 2014 Rise Set
Actual Time 8:09 AM CET 5:05 PM CET
Civil Twilight 7:35 AM CET 5:39 PM CET
Nautical Twilight 6:57 AM CET 6:16 PM CET
Astronomical Twilight 6:22 AM CET 6:52 PM CET
Moon 1:41 PM CET (1/11) 3:55 AM CET (1/11)
Length of Visible Light 10h 04m
Length of Day
8h 56m
Waxing Gibbous, 81% of the Moon is Illuminated
Jan 11
Waxing Gibbous
Jan 16
Full
Jan 24
Last Quarter
Jan 30
New
Feb 6
First Quarter

Hourly Weather History & Observations

Time (CET) Temp. Windchill Dew Point Humidity Pressure Visibility Wind Dir Wind Speed Gust Speed Precip Events Conditions
12:00 AM 19 °F - 9 °F 51%  in 6 mi North 5.8 mph - -   Mostly Cloudy
12:55 AM 19.4 °F 7.2 °F 10.4 °F 68% 30.15 in 6.2 mi ENE 11.5 mph - N/A   Mostly Cloudy
1:00 AM 19 °F - 10 °F 54%  in 6 mi ENE 11.5 mph - -   Mostly Cloudy
1:55 AM 21.2 °F 16.4 °F 6.8 °F 54% 30.15 in 6.2 mi North 3.5 mph - N/A   Scattered Clouds
2:00 AM 20 °F - 7 °F 44%  in 6 mi North 3.5 mph - -   Mostly Cloudy
2:55 AM 21.2 °F 16.4 °F 6.8 °F 54% 30.15 in 6.2 mi North 3.5 mph - N/A   Scattered Clouds
3:00 AM 20 °F - 7 °F 42%  in 6 mi North 3.5 mph - -   Mostly Cloudy
3:55 AM 21.2 °F 13.6 °F 6.8 °F 54% 30.15 in 6.2 mi WSW 5.8 mph - N/A   Scattered Clouds
4:00 AM 20 °F - 6 °F 41%  in 6 mi WSW 5.8 mph - -   Mostly Cloudy
4:55 AM 21.2 °F 10.1 °F 6.8 °F 54% 30.12 in 6.2 mi SW 10.4 mph - N/A   Scattered Clouds
5:00 AM 20 °F - 8 °F 45%  in 6 mi SW 10.4 mph - -   Mostly Cloudy
5:55 AM 19.4 °F 7.2 °F 8.6 °F 63% 30.12 in 6.2 mi SW 11.5 mph - N/A   Scattered Clouds
6:00 AM 19 °F - 9 °F 51%  in 6 mi SW 11.5 mph - -   Mostly Cloudy
6:55 AM 19.4 °F 9.5 °F 12.2 °F 74% 30.12 in 6.2 mi NNE 8.1 mph - N/A   Scattered Clouds
7:00 AM 19 °F - 12 °F 63%  in 6 mi NNE 8.1 mph - -   Partly Cloudy
7:55 AM 19.4 °F 7.9 °F 10.4 °F 68% 30.12 in 6.2 mi SW 10.4 mph 21.9 mph N/A   Scattered Clouds
8:00 AM 19 °F - 10 °F 54%  in 6 mi SW 10.4 mph - -   Partly Cloudy
8:55 AM 19.4 °F 7.9 °F 8.6 °F 63% 30.12 in 6.2 mi SW 10.4 mph - N/A   Scattered Clouds
9:00 AM 19 °F - 9 °F 51%  in 12 mi SW 10.4 mph - -   Partly Cloudy
9:55 AM 19.4 °F 8.6 °F 6.8 °F 58% 30.12 in 6.2 mi SW 9.2 mph - N/A   Scattered Clouds
10:00 AM 19 °F - 6 °F 43%  in 19 mi SW 9.2 mph - -   Partly Cloudy
10:55 AM 19.4 °F 10.4 °F 6.8 °F 58% 30.15 in 6.2 mi SSW 6.9 mph - N/A   Scattered Clouds
11:00 AM 20 °F - 7 °F 43%  in 19 mi SSW 6.9 mph - -   Partly Cloudy
11:55 AM 21.2 °F 12.6 °F 6.8 °F 54% 30.15 in 6.2 mi SW 6.9 mph - N/A   Partly Cloudy
12:00 PM 20 °F - 7 °F 44%  in 19 mi SW 6.9 mph - -   Scattered Clouds
12:55 PM 21.2 °F 9.5 °F 5.0 °F 50% 30.12 in 6.2 mi SW 11.5 mph - N/A   Partly Cloudy
1:00 PM 20 °F - 6 °F 39%  in 19 mi SW 11.5 mph - -   Scattered Clouds
1:55 PM 21.2 °F 14.9 °F 5.0 °F 50% 30.15 in 6.2 mi WSW 4.6 mph - N/A   Partly Cloudy
2:00 PM 21 °F - 4 °F 33%  in 19 mi WSW 4.6 mph - -   Scattered Clouds
2:55 PM 21.2 °F 16.4 °F -0.4 °F 39% 30.12 in 6.2 mi North 3.5 mph - N/A   Mostly Cloudy
3:00 PM 22 °F - -0 °F 23%  in 19 mi North 3.5 mph - -   Mostly Cloudy
3:55 PM 19.4 °F 8.6 °F 1.4 °F 46% 30.12 in 6.2 mi NE 9.2 mph - N/A   Mostly Cloudy
4:00 PM 19 °F - 0 °F 29%  in 19 mi NE 9.2 mph - -   Mostly Cloudy
4:55 PM 19.4 °F 7.9 °F 1.4 °F 46% 30.12 in 6.2 mi NE 10.4 mph - N/A   Mostly Cloudy
5:00 PM 19 °F - 1 °F 30%  in 19 mi NE 10.4 mph - -   Mostly Cloudy
5:55 PM 17.6 °F 3.2 °F 6.8 °F 63% 30.15 in 6.2 mi ENE 15.0 mph - N/A   Scattered Clouds
6:00 PM 18 °F - 7 °F 48%  in 19 mi ENE 15.0 mph - -   Partly Cloudy
6:55 PM 17.6 °F 5.0 °F 10.4 °F 73% 30.15 in 6.2 mi ENE 11.5 mph - N/A   Scattered Clouds
7:00 PM 17 °F - 10 °F 64%  in 12 mi ENE 11.5 mph - -   Partly Cloudy
7:55 PM 17.6 °F 2.7 °F 12.2 °F 79% 30.15 in 6.2 mi NE 16.1 mph - N/A   Scattered Clouds
8:00 PM 18 °F - 13 °F 70%  in 6 mi NE 16.1 mph - -   Partly Cloudy
8:55 PM 17.6 °F 2.7 °F 14.0 °F 86% 30.15 in 6.2 mi NE 16.1 mph - N/A   Scattered Clouds
9:00 PM 17 °F - 14 °F 82%  in 6 mi NE 16.1 mph - -   Scattered Clouds
9:55 PM 15.8 °F -0.2 °F 15.8 °F 100% 30.15 in 6.2 mi ENE 17.3 mph - N/A   Scattered Clouds
10:00 PM 16 °F - 16 °F 100%  in 6 mi ENE 17.3 mph - -   Partly Cloudy
10:55 PM 15.8 °F 2.7 °F 15.8 °F 100% 30.18 in 6.2 mi ENE 11.5 mph - N/A   Scattered Clouds
11:00 PM 16 °F - 16 °F 99%  in 6 mi ENE 11.5 mph - -   Overcast
11:55 PM 15.8 °F 4.2 °F 14.0 °F 93% 30.18 in 6.2 mi ENE 9.2 mph - N/A   Partly Cloudy